This demonstration page uses our WeatherBlox Daily Observations layout. Learn more.

Left ArrowRight Arrow

39.51506, -84.39828

Hourly Observations for May 6, 2020

Temp ( °F °C ) Dew Point ( °F °C ) Humidity (%) Winds ( mph kmh ) Pressure ( in mb ) Visibility ( mi km ) Precip ( " mm )
12:15 am 00:15 Cloudy 42 5.4 38 3.6 88 88 N 14 22 29.98 1015 N/A 0 0
12:35 am 00:35 Cloudy 41 5.1 37 2.9 86 86 NNE 12 19 29.97 1015 N/A 0 0
12:55 am 00:55 undefined 41 5 37 2.8 86 86 NNE 14 22 29.98 1015 N/A 0 0
1:15 am 01:15 undefined 40 4.7 37 2.8 88 88 NNE 10 17 29.98 1015 N/A 0 0
1:35 am 01:35 undefined 40 4.6 37 2.7 88 88 NNE 10 17 29.98 1015 N/A 0 0
1:55 am 01:55 Cloudy 40 4.7 37 2.6 86 86 NNE 9 15 29.98 1015 N/A 0 0
2:15 am 02:15 undefined 40 4.7 36 2.3 85 85 NNE 9 15 29.98 1015 N/A 0 0
2:35 am 02:35 undefined 40 4.4 37 2.5 88 88 N 12 19 29.98 1015 N/A 0 0
2:55 am 02:55 Cloudy 40 4.2 35 1.9 85 85 NNE 9 15 29.97 1015 N/A 0 0
3:15 am 03:15 Cloudy 40 4.2 35 1.9 85 85 NE 8 13 29.96 1015 N/A 0 0
3:35 am 03:35 Cloudy 40 4.2 35 1.9 85 85 NNE 7 11 29.97 1015 N/A 0 0
3:55 am 03:55 Cloudy 39 4.1 35 1.9 86 86 NNE 7 11 29.98 1015 N/A 0 0
4:15 am 04:15 Cloudy 40 4.2 36 2.1 86 86 NNE 5 7 29.98 1015 N/A 0 0
4:35 am 04:35 undefined 40 4.3 36 2.4 88 88 NNE 5 7 29.98 1015 N/A 0 0
4:55 am 04:55 undefined 40 4.2 37 2.5 89 89 Calm 29.99 1016 N/A 0 0
5:15 am 05:15 undefined 40 4.3 37 2.7 89 89 Calm 29.99 1016 N/A 0 0
5:35 am 05:35 undefined 40 4.3 37 2.9 91 91 NNW 5 7 29.99 1016 N/A 0 0
5:55 am 05:55 undefined 40 4.3 37 2.9 91 91 N 5 7 29.99 1016 N/A 0 0
6:15 am 06:15 Cloudy 40 4.4 37 2.7 89 89 NNW 3 6 30 1016 N/A 0 0
6:35 am 06:35 Cloudy 40 4.4 37 2.8 89 89 NW 3 6 29.99 1016 N/A 0 0
6:55 am 06:55 Cloudy 40 4.5 37 2.7 88 88 Calm 29.99 1016 N/A 0 0
7:15 am 07:15 Cloudy 40 4.7 37 2.8 88 88 Calm 29.99 1016 N/A 0 0
7:35 am 07:35 Cloudy 41 4.9 37 2.9 87 87 Calm 30 1016 N/A 0 0
7:55 am 07:55 Cloudy 41 5.2 37 2.7 84 84 WNW 3 6 30.01 1016 N/A 0 0
8:15 am 08:15 Cloudy 42 5.5 37 2.8 83 83 NW 3 6 30.01 1016 N/A 0 0
8:35 am 08:35 Cloudy 43 6 37 2.6 79 79 NNW 7 11 30.01 1016 N/A 0 0
8:55 am 08:55 Cloudy 43 6.3 36 2.4 76 76 NNW 8 13 30.01 1016 N/A 0 0
9:15 am 09:15 Cloudy 44 6.8 37 2.8 76 76 NNW 9 15 30.01 1016 N/A 0 0
9:35 am 09:35 Cloudy 45 7.2 38 3.1 75 75 NNW 5 7 30.02 1016 N/A 0 0
9:55 am 09:55 Cloudy 46 7.6 37 2.9 72 72 NNW 12 19 30.02 1016 N/A 0 0
10:15 am 10:15 Cloudy 47 8.4 38 3.3 71 71 N 7 11 30.01 1016 N/A 0 0
10:35 am 10:35 Cloudy 49 9.4 37 2.9 64 64 N 13 20 30.01 1016 N/A 0 0
10:55 am 10:55 Cloudy 50 10.2 38 3.2 62 62 NNW 9 15 30.01 1016 N/A 0 0
11:15 am 11:15 Cloudy 52 10.9 37 2.5 56 56 NNW 10 17 30.01 1016 N/A 0 0
11:35 am 11:35 Partly Cloudy 52 11.1 37 2.5 56 56 NNW 16 26 30.02 1016 N/A 0 0
11:55 am 11:55 Mostly Cloudy 53 11.5 37 2.8 55 55 NNW 16 26 30.03 1017 N/A 0 0
12:15 pm 12:15 Partly Cloudy 53 11.5 36 2.2 53 53 N 13 20 30.03 1017 N/A 0 0
12:35 pm 12:35 Mostly Cloudy 54 12.4 36 2.1 50 50 NNW 9 15 30.01 1016 N/A 0 0
12:55 pm 12:55 Partly Cloudy 56 13.2 35 1.5 45 45 N 7 11 30.01 1016 N/A 0 0
1:15 pm 13:15 Sunny 55 12.9 33 0.3 42 42 NNE 10 17 30.01 1016 N/A 0 0
1:35 pm 13:35 Sunny 56 13.1 32 0 41 41 NNW 5 7 30.01 1016 N/A 0 0
1:55 pm 13:55 Sunny 57 13.7 32 0.1 40 40 NNW 9 15 30.01 1016 N/A 0 0
2:15 pm 14:15 Sunny 58 14.4 33 0.7 39 39 N 13 20 30.01 1016 N/A 0 0
2:35 pm 14:35 Sunny 58 14.2 32 -0.1 38 38 NNW 10 17 30.01 1016 N/A 0 0
2:55 pm 14:55 Sunny 58 14.6 28 -2 32 32 N 12 19 30.01 1016 N/A 0 0
3:15 pm 15:15 Sunny 58 14.6 27 -2.8 30 30 NNW 14 22 30.01 1016 N/A 0 0
3:35 pm 15:35 Sunny 58 14.7 25 -3.7 28 28 N 10 17 30.02 1016 N/A 0 0
3:55 pm 15:55 Sunny 59 14.9 22 -5.4 24 24 N 16 26 30.01 1016 N/A 0 0
4:15 pm 16:15 Sunny 59 15.1 23 -5.1 25 25 N 17 28 30.01 1016 N/A 0 0
4:35 pm 16:35 Sunny 59 15.1 23 -5.2 24 24 N 8 13 30.01 1016 N/A 0 0
4:55 pm 16:55 Sunny 59 15.2 23 -5 25 25 NNW 12 19 30.01 1016 N/A 0 0
5:15 pm 17:15 Sunny 59 15.1 22 -5.7 23 23 N 10 17 30.01 1016 N/A 0 0
5:35 pm 17:35 Sunny 59 15.1 23 -4.8 25 25 N 13 20 30.01 1016 N/A 0 0
5:55 pm 17:55 Sunny 59 14.9 24 -4.7 26 26 NNW 12 19 30.01 1016 N/A 0 0
6:15 pm 18:15 Sunny 59 14.9 24 -4.5 26 26 N 13 20 30.02 1016 N/A 0 0
6:35 pm 18:35 Sunny 59 14.8 23 -4.8 26 26 N 14 22 30.02 1016 N/A 0 0
6:55 pm 18:55 Sunny 58 14.6 22 -5.4 25 25 NNW 13 20 30.02 1017 N/A 0 0
7:15 pm 19:15 Sunny 58 14.3 22 -5.5 25 25 NNW 18 30 30.02 1017 N/A 0 0
7:35 pm 19:35 Sunny 57 13.9 22 -5.7 25 25 NW 10 17 30.02 1017 N/A 0 0
7:55 pm 19:55 Sunny 56 13.4 24 -4.6 29 29 NNW 9 15 30.02 1017 N/A 0 0
8:15 pm 20:15 Sunny 55 12.7 23 -5.1 29 29 NNW 6 9 30.03 1017 N/A 0 0
8:35 pm 20:35 Sunny 53 11.7 24 -4.6 32 32 NW 6 9 30.03 1017 N/A 0 0
8:55 pm 20:55 Clear 48 9.1 33 0.4 55 55 NW 5 7 30.04 1017 N/A 0 0
9:15 pm 21:15 Clear 47 8.5 33 0.6 58 58 NW 3 6 30.05 1018 N/A 0 0
9:35 pm 21:35 Clear 46 7.7 34 1 63 63 Calm 30.05 1018 N/A 0 0
9:55 pm 21:55 Clear 45 7.1 35 1.9 70 70 Calm 30.06 1018 N/A 0 0
10:15 pm 22:15 Clear 43 6.1 36 2 75 75 Calm 30.07 1018 N/A 0 0
10:35 pm 22:35 Clear 42 5.8 34 1.1 72 72 Calm 30.07 1018 N/A 0 0
10:55 pm 22:55 Clear 42 5.7 34 1.2 73 73 Calm 30.07 1018 N/A 0 0
11:15 pm 23:15 Clear 42 5.7 34 1.1 73 73 Calm 30.07 1018 N/A 0 0
11:35 pm 23:35 Clear 42 5.3 34 1 74 74 WNW 7 11 30.07 1018 N/A 0 0
11:55 pm 23:55 Clear 44 6.5 29 -1.4 57 57 NW 8 13 30.07 1018 N/A 0 0

Powered by AerisWeather